Portland, OR

1:44 AM PDT on May 27, 2017 (GMT -0700)
Portland International

Weather History for KPDX - April, 2013

Change the Weather History Date:

Tuesday, April 16, 2013

  Actual Average Record
Temperature  
Mean Temperature 48 °F 52 °F  
Max Temperature 59 °F 61 °F 81 °F (1947)
Min Temperature 37 °F 43 °F 32 °F (1964)
Degree Days  
Heating Degree Days 17 13  
Month to date heating degree days 225 221  
Since 1 July heating degree days 3620 3801  
Cooling Degree Days 0 0  
Month to date cooling degree days 0 0  
Year to date cooling degree days 0 0  
Moisture  
Dew Point 39 °F    
Average Humidity 70    
Maximum Humidity 100    
Minimum Humidity 40    
Precipitation  
Precipitation 0.01 in 0.09 in 0.71 in (1992)
Month to date precipitation 1.60 1.54  
Year to date precipitation 7.81 13.76  
Snow  
Snow 0.00 in - 0.00 in (2016)
Month to date snowfall 0.0  
Since 1 July snowfall 0.0  
Snow Depth 0.00 in    
Sea Level Pressure  
Sea Level Pressure 30.31 in    
Wind  
Wind Speed 5 mph (NNW)    
Max Wind Speed 21 mph    
Max Gust Speed 24 mph    
Visibility 9 miles    
Events Rain    
T = Trace of Precipitation, MM = Missing Value Source: NWS Daily Summary

Daily Weather History Graph

Daily Weather History Graph

Search for Another Location

Airport or City:

Trip Planner

Search our weather history database for the weather conditions in past years. The results will help you decide how hot, cold, wet, or windy it might be!

Date:

Astronomy

Apr. 16, 2013 Rise Set
Actual Time 6:22 AM PDT 7:58 PM PDT
Civil Twilight 5:51 AM PDT 8:29 PM PDT
Nautical Twilight 5:13 AM PDT 9:07 PM PDT
Astronomical Twilight 4:32 AM PDT 9:48 PM PDT
Moon 10:38 AM PDT (4/16) 1:07 AM PDT (4/16)
Length of Visible Light 14h 38m
Length of Day
13h 36m
Waxing Crescent, 34% of the Moon is Illuminated
Apr 16
Waxing Crescent
Apr 18
First Quarter
Apr 25
Full
May 2
Last Quarter
May 9
New

Hourly Weather History & Observations

Time (PDT) Temp. Windchill Dew Point Humidity Pressure Visibility Wind Dir Wind Speed Gust Speed Precip Events Conditions
12:53 AM 45.0 °F 41.2 °F 41.0 °F 86% 30.20 in 10.0 mi NNW 6.9 mph - 0.00 in Rain Light Rain
1:53 AM 44.1 °F 42.5 °F 41.0 °F 89% 30.21 in 10.0 mi West 3.5 mph - 0.00 in   Overcast
2:53 AM 43.0 °F 41.3 °F 39.9 °F 89% 30.22 in 10.0 mi West 3.5 mph - N/A   Scattered Clouds
3:53 AM 43.0 °F 40.3 °F 39.0 °F 86% 30.23 in 10.0 mi WNW 4.6 mph - N/A   Scattered Clouds
4:53 AM 41.0 °F 39.0 °F 37.4 °F 87% 30.25 in 10.0 mi North 3.5 mph - N/A   Partly Cloudy
5:42 AM 41.0 °F - 37.4 °F 87% 30.26 in 10.0 mi Calm Calm - N/A   Mostly Cloudy
5:53 AM 39.9 °F 37.8 °F 37.9 °F 93% 30.26 in 9.0 mi NNW 3.5 mph - N/A   Scattered Clouds
6:27 AM 39.2 °F - 37.4 °F 93% 30.28 in 8.0 mi Calm Calm - N/A   Mostly Cloudy
6:53 AM 37.9 °F - 37.0 °F 97% 30.28 in 7.0 mi Calm Calm - N/A   Scattered Clouds
7:53 AM 39.9 °F 35.8 °F 39.0 °F 97% 30.30 in 6.0 mi WNW 5.8 mph - N/A   Mostly Cloudy
8:16 AM 42.8 °F 38.6 °F 39.2 °F 87% 30.31 in 6.0 mi WNW 6.9 mph - N/A   Mostly Cloudy
8:29 AM 41.0 °F 35.8 °F 39.2 °F 93% 30.31 in 5.0 mi WNW 8.1 mph - N/A   Overcast
8:53 AM 41.0 °F 38.0 °F 39.9 °F 96% 30.32 in 4.0 mi NNW 4.6 mph - N/A   Overcast
8:56 AM 41.0 °F 38.0 °F 39.2 °F 93% 30.32 in 1.5 mi NNW 4.6 mph - N/A   Overcast
9:27 AM 41.0 °F 37.1 °F 39.2 °F 93% 30.32 in 2.5 mi WNW 5.8 mph - N/A   Overcast
9:53 AM 44.1 °F - 41.0 °F 89% 30.33 in 5.0 mi Calm Calm - N/A   Overcast
10:05 AM 44.6 °F 43.1 °F 39.2 °F 81% 30.33 in 9.0 mi WNW 3.5 mph - N/A   Mostly Cloudy
10:37 AM 46.4 °F - 41.0 °F 81% 30.33 in 10.0 mi Calm Calm - N/A   Scattered Clouds
10:53 AM 46.9 °F - 39.9 °F 77% 30.33 in 10.0 mi Calm Calm - N/A   Scattered Clouds
11:53 AM 51.1 °F - 39.9 °F 66% 30.32 in 10.0 mi Calm Calm - N/A   Scattered Clouds
12:53 PM 52.0 °F - 39.0 °F 61% 30.31 in 10.0 mi NW 4.6 mph - N/A   Scattered Clouds
1:53 PM 55.0 °F - 33.1 °F 43% 30.30 in 10.0 mi NW 5.8 mph - N/A   Scattered Clouds
2:53 PM 52.0 °F - 37.9 °F 59% 30.31 in 10.0 mi East 6.9 mph - 0.01 in Rain Light Rain
3:53 PM 55.9 °F - 37.0 °F 49% 30.29 in 10.0 mi ENE 4.6 mph - 0.00 in   Scattered Clouds
4:53 PM 59.0 °F - 35.1 °F 41% 30.29 in 10.0 mi North 5.8 mph - N/A   Partly Cloudy
5:29 PM 53.6 °F - 41.0 °F 62% 30.29 in 10.0 mi ESE 17.3 mph - N/A   Clear
5:53 PM 53.1 °F - 41.0 °F 64% 30.30 in 10.0 mi East 16.1 mph - N/A   Scattered Clouds
6:53 PM 50.0 °F - 37.9 °F 63% 30.32 in 10.0 mi ESE 13.8 mph - N/A   Mostly Cloudy
7:53 PM 48.0 °F - 39.0 °F 71% 30.34 in 10.0 mi ESE 6.9 mph - N/A   Scattered Clouds
8:53 PM 46.9 °F - 39.0 °F 74% 30.37 in 10.0 mi East 4.6 mph - N/A   Partly Cloudy
9:53 PM 45.0 °F 41.8 °F 37.9 °F 76% 30.39 in 10.0 mi ESE 5.8 mph - N/A   Partly Cloudy
10:53 PM 44.1 °F - 39.0 °F 82% 30.41 in 10.0 mi Calm Calm - N/A   Clear
11:53 PM 43.0 °F 40.3 °F 39.0 °F 86% 30.41 in 10.0 mi East 4.6 mph - N/A   Clear